Location: Cisewo
(53.3833°N, 14.9000°E)
Time: 11:15:50
(UTC+00:00)

Cosmos 2074 Rocket - Pass Details

Date: 18 April 2021
Orbit: 968 x 985 km, 82.9° (Epoch: 14 May)

Event Time Altitude Azimuth Distance (km) Brightness Sun altitude
Rises 23:33:34 0° 347° (NNW) 3,687 8.1 -25.0°
Reaches altitude 10° 23:36:07 10° 344° (NNW) 2,738 7.2 -25.0°
Maximum altitude 23:42:14 57° 267° (W) 1,142 4.2 -24.8°
Enters shadow 23:43:22 50° 228° (SW) 1,233 4.2 -24.8°
